Date,TemperatureHighF,TemperatureAvgF,TemperatureLowF,DewpointHighF,DewpointAvgF,DewpointLowF,HumidityHigh,HumidityAvg,HumidityLow,PressureMaxIn,PressureMinIn,WindSpeedMaxMPH,WindSpeedAvgMPH,GustSpeedMaxMPH,PrecipitationSumIn
2012-1-1,47.1,38.7,29.4,41.3,32.4,22.5,90,78,62,30.09,29.64,36,13,36,0.05
2012-1-2,30.3,24.4,20.5,24.1,18.1,12.1,88,76,66,30.33,30.05,28,10,28,0.00
2012-1-3,25.4,21.0,16.7,17.0,12.9,9.6,86,71,53,30.47,30.22,19,6,19,0.00
2012-1-4,40.0,31.0,21.4,29.6,22.5,13.8,79,71,62,30.25,29.97,17,5,17,0.00
2012-1-5,49.1,36.5,25.7,37.0,29.5,21.8,86,76,62,30.10,29.85,19,4,19,0.00
2012-1-6,55.3,44.0,38.0,41.1,35.4,32.1,82,72,55,29.85,29.74,19,4,19,0.00
2012-1-7,45.4,38.9,30.0,33.8,30.8,25.7,86,73,56,30.26,29.77,16,4,16,0.00
2012-1-8,42.7,33.3,23.6,31.0,26.4,20.7,92,76,56,30.41,30.26,9,1,9,0.00
2012-1-9,48.0,35.3,24.7,31.7,27.6,21.9,92,74,49,30.33,30.06,18,4,18,0.00
2012-1-10,51.7,37.1,27.2,36.9,30.3,23.7,91,77,56,30.14,29.90,11,2,11,0.00
2012-1-11,41.2,38.5,34.6,38.1,33.9,28.8,93,84,73,29.90,29.47,13,3,13,0.52
2012-1-12,39.3,29.7,16.5,37.5,26.9,11.4,93,89,79,29.59,29.44,31,10,31,0.02
2012-1-13,18.7,16.6,13.7,15.4,13.0,9.9,87,85,82,30.13,29.59,30,14,30,0.00
2012-1-14,22.6,16.2,4.6,14.1,11.0,0.1,86,80,68,30.32,30.13,16,3,16,0.00
2012-1-15,28.3,15.7,0.3,20.6,9.1,-3.9,88,75,59,30.53,30.24,17,3,17,0.00
2012-1-16,49.4,38.1,26.9,47.5,33.1,20.4,93,82,72,30.24,29.80,18,4,18,0.00
2012-1-17,53.9,41.8,26.0,52.2,39.1,20.4,94,90,79,30.18,29.56,35,8,39,1.60
2012-1-18,27.1,24.0,20.9,20.7,17.3,13.7,80,75,69,30.35,30.04,17,4,17,0.00
2012-1-19,30.1,21.9,5.8,26.3,17.1,1.7,90,82,75,30.23,29.88,20,6,20,0.00
2012-1-20,17.0,11.1,-0.1,13.6,7.0,-4.3,96,83,72,30.33,30.08,18,5,18,0.00
2012-1-21,23.1,17.7,13.8,18.0,13.7,10.2,88,84,79,30.33,30.06,13,4,13,0.00
2012-1-22,44.5,31.2,16.8,43.2,28.9,13.6,95,91,86,30.27,29.69,20,6,20,0.05
2012-1-23,48.4,40.6,33.4,46.9,37.6,27.2,95,89,77,29.97,29.50,33,12,33,0.28
2012-1-24,34.9,31.8,27.4,28.4,26.4,24.2,88,80,74,30.39,29.97,27,8,27,0.00
2012-1-25,32.8,29.0,23.6,30.7,26.4,21.0,92,90,85,30.42,30.12,11,2,11,0.00
2012-1-26,34.1,33.4,32.8,32.6,31.6,30.7,94,93,92,30.12,29.61,12,3,12,0.89
2012-1-27,41.5,35.5,33.2,33.7,31.3,28.7,94,85,64,30.06,29.61,17,5,17,0.07
2012-1-28,34.8,32.6,30.4,31.3,25.3,19.3,92,75,54,30.23,29.89,30,10,31,0.05
2012-1-29,34.8,30.5,23.4,28.9,23.1,19.6,90,74,65,30.32,30.05,23,9,30,0.00
2012-1-30,51.3,36.2,21.1,37.8,28.3,17.8,90,74,58,30.31,30.00,21,4,21,0.00
2012-1-31,59.1,50.9,43.4,50.0,40.9,32.9,90,69,57,30.04,29.91,29,9,29,0.04
2012-2-1,53.7,45.5,36.3,50.8,41.1,33.5,91,85,70,30.15,29.91,20,4,20,0.02
2012-2-2,46.3,36.4,29.3,36.7,31.9,27.0,93,84,67,30.43,30.15,11,2,11,0.00
2012-2-3,52.1,37.9,26.2,40.7,33.0,23.8,93,83,63,30.51,30.35,15,2,15,0.01
2012-2-4,39.0,35.5,33.2,35.5,32.7,30.8,92,90,84,30.36,30.17,16,5,16,0.26
2012-2-5,47.1,34.7,26.5,34.8,29.3,24.4,93,82,53,30.31,30.18,7,1,9,0.00
2012-2-6,43.7,32.1,24.9,36.9,28.6,22.4,93,87,75,30.28,30.17,18,5,18,0.01
2012-2-7,34.5,32.1,29.4,31.1,28.4,25.5,91,86,81,30.35,30.21,9,2,12,0.01
2012-2-8,35.7,31.5,26.9,29.0,25.7,21.9,92,80,63,30.39,30.32,10,2,11,0.13
2012-2-9,31.6,27.3,22.6,23.3,21.3,18.8,89,78,68,30.38,30.21,18,6,18,0.00
2012-2-10,33.3,30.8,22.1,30.8,26.2,16.6,92,83,73,30.22,29.91,21,5,21,0.03
2012-2-11,21.8,15.8,9.6,16.6,8.9,3.3,86,74,63,30.41,30.02,24,6,24,0.00
2012-2-12,32.0,21.2,10.8,20.6,12.6,4.6,81,69,60,30.40,30.29,20,7,20,0.00
2012-2-13,34.2,26.1,14.6,25.5,17.3,9.3,89,70,52,30.30,30.00,17,3,17,0.00
2012-2-14,34.0,31.5,28.1,30.3,28.2,25.4,91,88,85,30.13,29.91,12,4,12,0.12
2012-2-15,42.2,37.2,33.2,37.5,33.0,28.6,91,85,78,30.23,30.04,12,3,12,0.23
2012-2-16,45.2,39.4,32.2,39.8,36.3,28.4,94,89,75,30.18,29.97,16,3,16,0.12
2012-2-17,47.7,36.6,27.7,34.1,29.2,24.2,89,75,52,30.24,30.07,14,4,14,0.00
2012-2-18,39.9,35.0,27.9,31.5,26.6,20.8,87,72,52,30.22,30.06,18,4,18,0.00
2012-2-19,35.7,28.3,22.8,23.8,20.4,18.0,89,72,56,30.27,30.14,16,3,16,0.00
2012-2-20,39.9,30.4,19.0,27.8,23.0,16.0,90,74,60,30.40,30.06,19,4,19,0.00
2012-2-21,44.4,40.2,36.1,40.1,34.7,25.2,91,81,62,30.06,29.74,27,9,27,0.13
2012-2-22,52.6,42.0,34.5,40.2,35.2,30.6,89,78,55,29.79,29.43,17,4,17,0.00
2012-2-23,41.5,35.9,27.7,38.6,33.3,25.4,97,90,86,29.63,29.45,22,4,22,0.33
2012-2-24,41.6,35.9,27.8,38.9,32.1,19.2,92,86,69,29.97,29.35,34,12,34,0.03
2012-2-25,31.2,26.8,21.2,21.5,18.7,16.3,82,71,59,30.41,29.96,25,8,25,0.00
2012-2-26,48.3,33.5,19.4,29.7,22.9,15.9,87,67,45,30.43,30.15,20,4,20,0.00
2012-2-27,44.1,38.4,27.1,30.2,26.0,21.5,80,61,49,30.52,30.15,24,6,24,0.00
2012-2-28,48.9,36.3,22.6,33.0,26.4,18.9,88,69,45,30.53,29.98,17,4,17,0.00
2012-2-29,67.3,52.4,39.6,58.1,40.9,29.7,95,68,38,29.99,29.51,34,11,34,0.42
2012-3-1,40.4,37.0,33.3,31.9,30.4,28.7,85,77,68,29.91,29.68,27,8,27,0.00
2012-3-2,58.2,42.0,33.3,53.0,37.0,29.1,93,82,72,29.87,29.23,46,8,46,0.70
2012-3-3,36.2,32.6,29.5,30.4,25.8,22.3,84,76,66,29.88,29.60,28,13,28,0.00
2012-3-4,33.3,30.4,28.6,26.7,25.1,23.2,89,81,70,29.95,29.84,16,5,16,0.02
2012-3-5,36.4,30.6,25.1,24.3,21.2,17.5,84,69,50,30.44,29.94,16,4,16,0.01
2012-3-6,66.5,46.5,29.3,42.0,31.6,22.8,78,58,37,30.42,30.10,24,6,24,0.00
2012-3-7,67.5,56.6,44.0,48.1,39.4,30.1,65,53,43,30.19,29.97,36,7,36,0.00
2012-3-8,62.0,48.1,33.0,54.0,41.0,26.3,90,77,59,30.27,29.87,31,8,31,0.32
2012-3-9,41.1,34.7,25.4,27.2,20.7,13.6,80,58,35,30.58,30.25,23,7,23,0.00
2012-3-10,53.7,37.4,23.0,29.9,23.0,16.0,75,58,35,30.58,30.35,19,4,19,0.00
2012-3-11,69.7,51.0,32.6,40.8,33.6,24.9,76,54,30,30.38,30.17,16,3,16,0.00
2012-3-12,69.4,59.7,51.5,58.9,51.9,38.0,90,76,51,30.17,29.81,28,6,28,0.12
2012-3-13,72.5,60.8,47.7,56.5,49.0,40.1,92,68,37,30.12,29.91,18,4,18,0.00
2012-3-14,81.5,63.1,44.4,60.5,50.3,40.4,91,66,36,30.14,30.00,19,3,19,0.00
2012-3-15,80.6,68.6,59.1,65.7,58.8,53.8,93,72,51,30.08,29.97,22,5,22,0.18
2012-3-16,79.3,66.1,54.1,60.4,55.6,51.4,93,71,47,30.13,30.03,16,3,16,0.00
2012-3-17,76.5,63.8,50.3,61.3,55.2,47.8,94,75,53,30.16,30.04,15,2,15,0.00
2012-3-18,79.7,68.2,59.0,63.6,58.2,55.3,91,72,45,30.12,30.00,15,3,17,0.10
2012-3-19,82.9,70.9,59.6,64.7,58.8,55.7,88,68,44,30.08,29.98,18,3,18,0.00
2012-3-20,84.8,72.7,62.3,60.2,56.5,53.9,75,59,39,30.12,30.00,20,3,20,0.00
2012-3-21,86.3,74.4,64.9,61.1,56.1,52.9,71,54,37,30.15,30.03,16,2,16,0.00
2012-3-22,83.5,70.7,60.0,61.2,57.0,54.2,87,64,39,30.12,30.01,17,2,17,0.00
2012-3-23,65.0,61.1,54.5,61.3,57.1,50.1,93,87,78,30.05,29.80,14,2,14,1.16
2012-3-24,65.4,57.8,50.9,55.3,52.4,48.6,93,83,63,29.88,29.74,9,3,18,0.17
2012-3-25,71.8,60.1,53.2,57.8,53.3,50.4,91,79,55,30.07,29.88,14,3,14,0.01
2012-3-26,55.1,46.6,39.5,50.4,34.2,26.8,85,63,45,30.36,30.06,18,5,18,0.00
2012-3-27,64.1,47.8,33.0,42.5,30.3,19.5,65,52,37,30.36,29.94,20,5,20,0.00
2012-3-28,72.2,63.0,49.1,56.2,45.2,35.6,83,55,29,30.01,29.83,30,8,30,0.00
2012-3-29,59.1,48.9,36.0,41.5,37.8,33.3,92,67,48,30.13,30.01,15,2,15,0.00
2012-3-30,74.2,54.4,40.8,61.1,46.1,35.8,89,74,58,30.02,29.65,26,6,26,0.20
2012-3-31,52.2,44.6,41.0,43.1,39.7,37.0,91,83,66,29.99,29.84,10,3,10,0.00
2012-4-1,76.3,57.1,40.9,62.6,49.4,36.8,90,77,58,29.93,29.65,17,4,17,0.00
2012-4-2,65.3,54.7,43.6,51.9,41.2,36.1,79,62,39,29.99,29.74,20,6,20,0.00
2012-4-3,84.8,64.9,47.9,62.9,50.5,39.8,77,61,44,29.96,29.75,16,2,16,0.00
2012-4-4,66.5,59.0,48.2,54.1,43.7,31.4,80,59,28,29.90,29.80,20,5,20,0.00
2012-4-5,55.1,48.0,40.9,35.4,33.0,30.0,72,57,44,30.11,29.86,24,5,24,0.00
2012-4-6,59.3,45.3,33.0,34.2,29.6,25.8,83,57,31,30.30,30.11,17,4,18,0.00
2012-4-7,69.2,51.4,29.4,41.9,27.5,19.4,88,46,15,30.35,30.15,12,2,14,0.00
2012-4-8,63.6,56.5,48.3,44.0,33.6,23.3,74,45,23,30.23,30.09,24,4,24,0.00
2012-4-9,63.9,53.6,40.1,38.9,30.7,23.3,84,46,22,30.11,29.91,28,5,28,0.00
2012-4-10,49.1,40.6,32.6,27.0,24.0,19.9,68,52,40,30.13,29.95,16,5,22,0.00
2012-4-11,54.5,41.7,30.6,31.7,26.5,22.1,72,57,34,30.29,30.12,14,3,23,0.00
2012-4-12,61.1,45.3,26.9,36.5,30.7,23.8,90,60,35,30.34,30.17,21,2,21,0.00
2012-4-13,66.6,52.0,32.2,36.1,32.0,28.8,90,51,26,30.26,30.10,14,2,14,0.00
2012-4-14,60.2,57.0,52.7,58.2,48.6,33.2,95,75,43,30.12,29.91,17,2,17,0.30
2012-4-15,80.0,68.9,58.3,62.4,58.6,55.3,93,71,48,29.92,29.76,29,7,29,0.01
2012-4-16,69.4,60.6,47.5,60.9,51.2,41.1,90,72,57,30.22,29.67,34,12,37,0.21
2012-4-17,63.3,49.3,37.5,45.9,39.6,34.9,93,72,41,30.38,30.22,15,2,15,0.00
2012-4-18,71.0,54.4,36.3,44.6,40.1,33.9,92,63,35,30.32,30.03,13,2,13,0.00
2012-4-19,78.7,64.2,51.6,51.3,45.7,42.3,74,53,31,30.04,29.83,17,4,17,0.00
2012-4-20,72.5,58.0,42.9,53.1,46.4,40.4,92,67,48,29.88,29.69,25,6,25,0.18
2012-4-21,56.6,46.2,40.3,42.2,37.5,32.5,92,73,43,30.00,29.87,15,3,15,0.00
2012-4-22,51.6,45.5,40.5,39.9,31.9,21.2,86,61,38,30.01,29.95,17,5,20,0.00
2012-4-23,57.4,46.6,35.3,28.9,22.1,12.7,62,40,22,30.00,29.79,28,6,28,0.00
2012-4-24,64.7,50.7,35.0,34.8,25.7,19.9,65,39,23,29.79,29.71,21,5,21,0.00
2012-4-25,67.5,55.6,43.5,55.0,44.0,30.8,89,66,44,29.81,29.66,16,2,16,0.02
2012-4-26,65.0,54.2,39.0,54.5,43.9,17.3,94,71,34,30.11,29.58,23,4,23,0.14
2012-4-27,56.7,44.2,28.4,30.9,26.7,22.6,81,53,29,30.30,30.10,15,4,15,0.00
2012-4-28,49.6,46.1,40.2,39.9,34.7,27.3,89,66,45,30.21,30.03,23,7,23,0.31
2012-4-29,63.7,52.5,39.0,46.2,39.3,32.3,82,62,45,30.28,30.11,20,5,20,0.00
2012-4-30,80.8,63.1,52.0,63.7,54.3,38.0,94,74,51,30.12,29.85,25,4,25,0.77
2012-5-1,66.5,61.5,54.8,62.2,58.0,52.5,95,88,70,30.06,29.84,16,3,16,0.80
2012-5-2,83.8,72.3,61.0,70.0,65.6,59.6,96,81,58,29.96,29.87,24,6,26,0.01
2012-5-3,87.5,76.6,66.6,67.9,64.6,60.4,92,68,45,30.01,29.87,18,5,23,0.00
2012-5-4,83.7,72.8,65.7,69.2,64.6,59.1,89,76,54,29.96,29.84,14,3,14,0.00
2012-5-5,76.6,67.5,61.7,66.0,61.6,57.4,93,82,65,30.02,29.86,20,4,20,0.00
2012-5-6,82.0,68.1,54.3,64.6,56.4,48.1,88,68,50,30.06,29.84,13,3,13,0.00
2012-5-7,73.9,64.6,50.9,65.2,57.1,47.3,93,77,63,29.91,29.78,16,3,28,0.42
2012-5-8,73.0,62.5,53.9,60.0,52.2,45.3,92,71,44,29.89,29.81,20,4,20,0.00
2012-5-9,65.3,57.2,49.0,50.0,46.1,38.6,87,68,50,29.92,29.84,18,4,18,0.00
2012-5-10,69.2,56.0,39.8,46.2,38.6,30.9,90,56,25,30.05,29.91,15,2,15,0.00
2012-5-11,77.8,60.3,38.8,47.4,39.8,34.8,93,53,23,30.18,30.05,11,2,13,0.00
2012-5-12,76.4,65.0,52.3,57.0,49.0,43.4,82,58,37,30.24,30.15,14,2,14,0.00
2012-5-13,78.2,65.4,52.8,59.8,54.7,50.2,94,71,41,30.18,30.03,13,2,13,0.00
2012-5-14,81.3,66.7,51.0,57.5,50.7,41.5,93,60,32,30.09,29.97,10,2,10,0.00
2012-5-15,83.9,67.0,45.6,52.8,44.2,40.2,92,50,23,30.02,29.86,18,3,18,0.00
2012-5-16,72.3,65.6,55.4,55.2,43.3,34.3,75,46,26,30.08,29.85,19,4,19,0.00
2012-5-17,72.7,60.0,43.6,44.6,39.4,33.5,86,50,25,30.17,30.06,16,3,16,0.00
2012-5-18,83.8,66.6,46.1,48.5,41.3,34.7,77,42,21,30.12,29.99,11,2,11,0.00
2012-5-19,90.0,72.6,51.0,62.8,52.6,42.5,85,52,31,30.09,30.00,10,2,10,0.00
2012-5-20,91.5,77.7,59.6,65.5,57.9,52.7,80,53,33,30.10,29.94,17,2,17,0.00
2012-5-21,77.7,65.0,56.6,63.7,57.3,50.0,93,77,47,30.03,29.95,19,3,19,0.06
2012-5-22,75.7,62.4,50.0,52.8,48.3,43.3,87,63,33,30.02,29.88,14,2,14,0.00
2012-5-23,83.8,67.8,48.4,57.8,52.3,46.1,93,62,34,29.92,29.79,14,2,15,0.00
2012-5-24,88.6,76.1,61.4,64.2,56.8,49.6,87,55,28,29.87,29.69,23,4,23,0.00
2012-5-25,93.0,81.0,72.9,68.1,60.5,52.1,68,51,36,30.04,29.78,18,4,18,0.00
2012-5-26,84.5,73.4,68.3,62.7,54.6,51.8,59,52,45,30.11,30.02,12,2,12,0.00
2012-5-27,96.8,83.4,67.9,69.0,63.4,57.4,80,53,32,30.04,29.88,12,3,17,0.00
2012-5-28,94.4,84.2,73.4,68.3,65.3,62.4,77,55,37,29.90,29.73,22,5,23,0.00
2012-5-29,85.0,76.0,67.0,69.0,61.0,48.8,92,63,30,29.85,29.70,20,3,20,0.33
2012-5-30,77.2,65.6,53.6,57.7,51.0,45.3,91,63,33,29.86,29.80,18,4,19,0.00
2012-5-31,73.6,59.4,49.3,58.1,50.3,44.4,91,73,47,29.93,29.72,18,4,18,0.37
2012-6-1,55.6,52.9,46.4,52.2,48.9,43.0,92,86,72,29.81,29.63,21,4,21,0.01
2012-6-2,73.7,57.7,43.9,54.5,48.7,41.7,93,74,40,29.83,29.76,27,5,27,0.05
2012-6-3,80.7,66.2,49.9,59.4,51.7,47.3,93,64,33,29.86,29.79,21,4,21,0.01
2012-6-4,80.0,69.5,58.5,57.3,52.4,47.6,84,57,36,29.85,29.75,16,3,16,0.00
2012-6-5,69.8,61.5,51.6,52.8,49.7,46.0,91,66,49,29.99,29.85,17,3,17,0.00
2012-6-6,77.5,63.1,47.1,52.1,47.5,44.0,93,61,31,30.06,29.99,17,3,17,0.00
2012-6-7,83.9,68.8,51.5,57.2,51.0,48.0,93,58,30,30.10,30.01,14,2,14,0.00
2012-6-8,87.0,70.4,49.5,55.9,50.1,44.6,92,55,24,30.09,29.93,15,2,15,0.00
2012-6-9,90.8,74.8,56.1,59.3,53.6,50.4,84,52,26,29.99,29.88,17,3,17,0.00
2012-6-10,92.2,77.6,60.5,64.8,58.5,51.8,78,55,32,30.00,29.91,16,2,16,0.00
2012-6-11,85.9,77.9,71.3,70.4,66.7,61.9,82,69,56,29.92,29.79,14,2,14,0.01
2012-6-12,82.3,72.3,59.6,66.1,55.0,44.7,89,58,29,30.08,29.82,17,4,17,0.00
2012-6-13,78.0,65.2,53.6,52.7,45.3,38.8,78,52,25,30.16,30.07,11,3,13,0.00
2012-6-14,86.5,70.4,51.8,52.5,46.2,38.8,78,46,20,30.15,30.04,15,2,15,0.00
2012-6-15,91.5,75.5,54.8,58.1,52.5,46.6,88,49,25,30.12,30.03,12,2,12,0.00
2012-6-16,94.9,79.2,63.2,69.9,63.8,54.3,81,61,38,30.10,29.91,14,3,17,0.00
2012-6-17,85.9,76.4,67.8,69.2,64.9,61.3,83,69,48,29.94,29.81,19,4,19,0.00
2012-6-18,94.0,80.5,64.5,70.3,65.5,60.6,92,64,40,29.89,29.77,23,5,23,0.00
2012-6-19,95.4,83.2,70.5,70.2,65.4,62.0,77,56,39,30.01,29.88,21,4,21,0.00
2012-6-20,94.3,83.1,69.9,66.8,63.6,61.5,80,54,35,30.08,29.93,19,4,19,0.00
2012-6-21,93.6,78.6,64.8,71.1,65.0,61.3,93,66,38,29.96,29.81,22,5,22,1.11
2012-6-22,85.3,72.5,60.0,68.4,59.4,52.7,95,68,35,29.97,29.91,12,2,12,0.01
2012-6-23,87.3,72.8,56.4,65.0,58.2,53.8,93,64,35,30.03,29.95,10,2,10,0.00
2012-6-24,90.7,80.9,66.2,66.0,62.2,57.3,87,56,36,30.00,29.86,16,3,16,0.00
2012-6-25,81.5,74.3,63.8,63.9,53.5,40.5,74,51,27,29.99,29.87,17,4,17,0.00
2012-6-26,81.9,67.9,50.3,53.7,48.3,44.8,90,53,29,30.06,29.93,11,2,15,0.00
2012-6-27,91.1,73.0,52.8,59.2,53.5,49.5,90,56,28,30.03,29.83,16,3,16,0.00
2012-6-28,102.0,85.3,68.1,77.2,66.0,53.8,68,53,42,29.86,29.72,21,5,21,0.00
2012-6-29,95.3,77.8,66.8,78.5,68.3,63.0,91,73,46,29.89,29.73,36,2,36,0.06
2012-6-30,89.0,76.0,66.1,75.4,69.3,63.7,94,81,56,29.91,29.78,15,3,15,0.14
2012-7-1,92.6,74.5,66.0,76.0,68.6,62.0,95,83,46,30.04,29.83,30,2,30,0.14
2012-7-2,93.5,79.0,63.6,76.2,70.0,61.5,95,76,50,30.01,29.91,12,2,12,0.00
2012-7-3,94.3,81.6,68.4,75.7,70.4,64.2,89,71,49,29.94,29.82,14,3,14,0.00
2012-7-4,99.1,85.3,71.8,76.2,72.8,68.7,92,69,44,29.90,29.81,14,3,14,0.00
2012-7-5,100.2,86.6,73.6,76.8,72.2,66.3,94,66,34,29.94,29.85,12,2,15,0.00
2012-7-6,102.6,87.9,73.4,79.0,74.2,69.9,91,67,40,29.94,29.85,11,2,18,0.00
2012-7-7,103.2,89.5,74.3,75.4,71.2,64.8,89,59,30,29.92,29.83,15,2,15,0.00
2012-7-8,86.3,79.4,71.5,73.1,64.7,59.2,81,62,44,29.97,29.88,13,3,13,0.00
2012-7-9,92.7,77.7,62.8,64.3,59.6,56.2,86,57,31,30.01,29.92,12,2,12,0.00
2012-7-10,90.4,78.6,64.0,63.1,57.5,52.3,77,51,29,30.03,29.96,15,2,15,0.00
2012-7-11,90.3,78.6,65.0,55.2,51.4,46.5,61,41,26,30.09,30.00,17,3,17,0.00
2012-7-12,95.2,80.3,65.8,59.2,53.3,50.0,63,42,23,30.08,29.98,14,2,14,0.00
2012-7-13,94.2,81.4,68.6,68.2,63.8,58.5,85,58,34,30.06,29.95,14,2,14,0.00
2012-7-14,91.2,79.6,70.4,71.0,67.7,64.1,88,68,45,30.05,29.95,15,2,15,0.48
2012-7-15,91.0,79.1,70.8,76.1,70.0,67.1,89,75,48,30.07,29.94,18,3,18,0.18
2012-7-16,95.4,82.6,68.7,73.3,68.1,64.7,89,65,39,30.00,29.83,11,2,13,0.00
2012-7-17,98.7,83.3,72.9,73.8,70.0,66.4,86,66,38,29.87,29.78,15,2,15,0.00
2012-7-18,97.7,81.5,72.1,74.6,70.1,66.5,89,70,40,29.90,29.82,15,2,15,0.00
2012-7-19,86.5,76.4,70.9,76.3,70.5,66.6,89,82,66,29.95,29.77,15,2,15,1.35
2012-7-20,81.6,73.2,64.9,71.5,63.4,56.3,89,73,43,30.03,29.83,13,4,16,0.03
2012-7-21,88.0,73.4,58.8,66.2,59.9,55.0,89,66,35,30.11,30.01,10,1,10,0.00
2012-7-22,88.7,78.8,67.0,72.0,66.0,61.7,86,67,45,30.11,30.01,10,2,11,0.00
2012-7-23,95.1,83.6,73.3,74.7,68.3,62.5,74,61,45,30.03,29.86,24,4,24,0.00
2012-7-24,83.9,76.1,66.1,72.1,68.9,61.9,89,79,62,30.07,29.84,25,2,25,1.14
2012-7-25,95.5,81.3,69.6,79.2,69.1,57.7,86,68,52,29.92,29.63,15,2,15,0.00
2012-7-26,87.5,81.5,72.6,73.5,69.7,67.0,84,68,59,29.75,29.61,15,4,20,0.00
2012-7-27,87.3,75.6,67.0,70.4,66.4,62.7,88,74,49,29.89,29.71,19,2,19,0.09
2012-7-28,84.1,73.7,65.6,64.2,60.5,54.3,88,66,38,30.06,29.89,15,3,15,0.00
2012-7-29,85.8,72.5,58.6,65.4,58.0,51.5,89,64,32,30.09,29.96,9,2,9,0.00
2012-7-30,89.7,76.7,63.6,67.4,62.7,57.8,86,64,40,29.99,29.87,12,2,12,0.00
2012-7-31,87.2,76.5,66.0,71.3,65.0,61.0,86,68,52,29.99,29.81,12,3,18,0.09
2012-8-1,86.1,74.6,64.2,65.9,59.5,49.7,88,63,31,29.92,29.85,14,2,14,0.00
2012-8-2,93.1,75.8,56.9,64.8,58.2,52.5,89,60,28,29.90,29.79,13,2,13,0.00
2012-8-3,94.0,81.0,65.7,71.1,65.3,60.7,86,61,36,29.88,29.81,10,2,12,0.00
2012-8-4,91.0,76.5,68.8,76.4,69.8,64.1,88,80,55,29.90,29.78,12,2,22,0.85
2012-8-5,72.0,70.7,69.7,68.8,67.1,66.0,90,89,88,29.97,29.85,18,2,18,0.39
2012-8-7,86.9,75.6,70.4,65.1,64.3,63.2,79,69,48,29.92,29.90,3,1,3,0.00
2012-8-8,90.2,78.2,64.4,72.3,64.3,59.1,86,64,41,29.93,29.87,12,2,12,0.00
2012-8-9,81.3,72.0,65.2,68.7,64.4,60.6,88,78,53,29.92,29.71,21,2,21,0.72
2012-8-10,72.3,65.1,60.4,62.6,57.3,50.4,89,77,54,29.87,29.70,25,5,25,0.01
2012-8-11,77.1,66.7,58.8,60.8,56.9,53.5,86,71,52,29.98,29.86,15,4,15,0.00
2012-8-12,76.8,63.2,52.4,63.0,54.3,49.0,89,75,47,30.04,29.97,4,1,7,0.01
2012-8-13,77.0,69.8,63.9,64.1,60.2,56.4,87,72,60,29.99,29.86,12,3,12,0.33
2012-8-14,78.1,67.5,61.9,63.9,61.2,57.7,91,81,54,29.93,29.83,11,2,11,0.65
2012-8-15,84.3,71.0,59.4,67.4,60.9,55.5,90,73,46,29.97,29.90,11,2,11,0.01
2012-8-16,76.9,68.1,63.5,64.2,60.8,58.0,86,78,62,30.01,29.76,22,4,24,0.49
2012-8-17,76.0,68.4,58.5,63.4,58.0,50.9,88,71,49,29.98,29.86,13,3,13,0.25
2012-8-18,76.8,62.5,48.9,54.6,49.8,41.0,89,67,29,30.02,29.91,9,2,9,0.00
2012-8-19,77.5,65.4,54.4,56.9,51.5,44.7,88,65,32,29.95,29.87,12,2,12,0.00
2012-8-20,78.3,63.6,51.7,60.4,54.1,48.0,89,74,37,29.98,29.90,18,2,18,0.27
2012-8-21,79.5,65.2,51.3,59.5,52.8,47.8,89,68,38,30.08,29.97,9,2,9,0.01
2012-8-22,82.1,67.2,51.5,60.5,53.3,47.8,89,65,35,30.13,30.05,14,2,14,0.01
2012-8-23,88.3,71.1,54.4,62.4,56.5,50.3,89,64,32,30.13,30.04,7,1,7,0.00
2012-8-24,89.9,74.9,59.6,65.1,58.7,54.9,87,60,32,30.07,29.98,13,2,13,0.00
2012-8-25,90.8,76.8,62.5,66.6,59.9,54.5,83,58,31,30.07,30.00,9,1,9,0.00
2012-8-26,88.6,74.5,64.6,70.4,64.3,58.1,86,72,46,30.08,29.96,24,2,24,0.02
2012-8-27,84.2,74.8,64.2,71.3,66.0,56.9,90,76,50,30.02,29.92,14,3,14,1.57
2012-8-28,82.4,70.5,59.2,63.5,58.8,55.0,88,69,45,30.10,30.00,12,2,12,0.01
2012-8-29,81.0,69.9,58.7,63.0,58.7,55.2,89,70,45,30.08,29.99,10,2,10,0.01
2012-8-30,86.2,70.3,55.8,62.5,57.2,51.7,88,66,35,30.09,29.98,13,2,13,0.00
2012-8-31,89.2,73.7,58.6,74.2,65.5,54.4,87,77,56,30.09,30.00,16,3,16,0.01
2012-9-1,78.1,74.9,71.9,72.8,70.4,68.2,89,86,80,30.05,29.93,10,2,10,0.48
2012-9-2,80.2,74.4,71.2,72.7,69.8,67.1,89,86,76,29.94,29.81,17,4,17,0.69
2012-9-3,85.1,76.3,70.7,72.8,69.6,67.3,89,80,64,29.87,29.81,14,3,14,0.02
2012-9-4,86.1,76.0,68.1,73.6,69.1,64.4,90,80,62,29.87,29.80,9,1,9,0.00
2012-9-5,81.8,72.2,66.4,73.1,66.6,62.7,90,83,64,29.86,29.77,19,2,19,0.66
2012-9-6,86.7,73.9,62.9,71.6,64.3,59.3,90,74,48,29.91,29.82,10,2,10,0.01
2012-9-7,77.9,68.5,61.8,71.1,63.1,57.7,89,83,67,29.92,29.67,25,2,25,1.22
2012-9-8,72.5,63.2,53.7,63.3,54.0,48.0,89,74,45,29.87,29.66,21,4,21,0.13
2012-9-9,73.3,62.3,52.4,56.5,51.9,47.8,88,70,46,30.10,29.85,13,3,13,0.01
2012-9-10,75.7,62.2,50.5,52.3,48.7,43.4,87,65,34,30.22,30.10,10,2,10,0.00
2012-9-11,78.3,60.6,51.4,55.8,50.4,46.7,87,71,40,30.22,30.14,16,3,16,0.00
2012-9-12,83.6,69.4,56.8,60.4,55.0,49.3,78,62,39,30.22,30.13,7,2,15,0.00
2012-9-13,82.2,72.5,65.0,62.2,58.2,52.4,80,62,38,30.24,30.13,17,3,17,0.00
2012-9-14,72.2,62.1,53.9,58.6,51.9,44.7,88,71,40,30.30,30.18,15,4,15,0.27
2012-9-15,75.2,60.6,47.1,55.2,48.1,43.4,89,67,34,30.33,30.15,10,2,10,0.01
2012-9-16,77.5,61.5,47.5,55.8,48.4,43.5,89,66,32,30.16,30.00,10,2,10,0.00
2012-9-17,75.3,63.2,50.7,62.4,55.9,46.7,89,78,60,30.00,29.72,10,2,12,0.03
2012-9-18,64.1,58.6,42.6,60.4,49.3,34.0,88,73,39,30.01,29.64,19,4,21,0.02
2012-9-19,69.3,53.7,36.6,45.3,37.2,32.8,92,59,29,30.14,29.99,18,4,18,0.00
2012-9-20,75.8,62.2,53.4,51.5,44.5,39.1,69,53,35,30.00,29.85,18,5,18,0.00
2012-9-21,70.3,55.8,44.8,50.1,42.4,36.8,87,64,30,29.95,29.74,12,3,15,0.39
2012-9-22,58.4,50.9,41.1,52.0,42.2,29.3,89,74,36,30.15,29.76,27,5,27,0.02
2012-9-23,62.4,48.9,37.6,43.7,35.3,32.1,87,63,34,30.25,30.15,12,3,18,0.01
2012-9-24,68.5,51.0,34.3,41.3,33.6,29.0,88,58,23,30.25,30.00,19,4,19,0.00
2012-9-25,68.7,59.2,51.0,60.1,49.7,38.1,86,71,54,30.01,29.88,17,4,17,0.07
2012-9-26,67.2,64.0,60.0,63.4,60.0,56.4,89,87,85,30.08,29.89,13,4,13,0.19
2012-9-27,73.8,62.7,54.6,61.0,55.1,48.3,89,77,53,30.14,30.06,12,3,12,0.00
2012-9-28,68.2,59.7,53.5,56.8,52.4,47.7,89,77,54,30.11,30.03,10,2,10,0.01
2012-9-29,72.5,58.2,45.8,53.5,45.5,41.4,89,67,34,30.10,29.94,13,2,13,0.00
2012-9-30,49.5,45.6,43.2,43.5,41.1,39.3,87,84,78,29.94,29.88,4,1,4,0.01
2012-10-1,57.8,56.0,54.3,48.1,47.5,47.2,77,73,68,29.80,29.76,14,5,14,0.01
2012-10-2,60.8,56.6,52.8,57.1,52.6,47.2,88,86,77,29.87,29.73,16,5,16,0.21
2012-10-3,67.1,60.6,57.0,57.5,53.9,50.3,89,79,61,30.06,29.87,14,3,14,0.00
2012-10-4,79.8,65.7,51.8,56.9,52.2,46.9,86,64,37,30.13,30.03,23,5,23,0.01
2012-10-5,66.1,48.5,41.0,54.8,43.1,36.9,87,82,63,30.14,30.04,10,4,12,0.97
2012-10-6,52.0,42.9,33.8,37.5,32.8,29.3,87,69,46,30.17,30.06,16,5,16,0.01
2012-10-7,50.4,41.3,33.2,36.1,30.9,27.3,87,68,43,30.20,30.13,18,4,18,0.00
2012-10-8,56.7,41.4,27.8,36.3,27.3,23.6,92,62,30,30.25,30.11,15,3,15,0.01
2012-10-9,63.2,49.6,37.6,39.4,34.7,29.6,76,58,37,30.13,29.89,18,5,20,0.00
2012-10-10,53.2,46.1,34.0,42.7,33.4,24.2,84,63,35,30.22,29.87,25,7,25,0.02
2012-10-11,61.7,46.3,30.8,35.8,30.9,26.5,85,59,31,30.26,30.12,21,6,22,0.00
2012-10-12,55.6,49.3,41.5,40.7,31.1,22.3,71,51,29,30.42,30.17,15,5,15,0.00
2012-10-13,64.8,53.4,40.2,59.9,43.7,24.7,88,70,51,30.33,29.91,16,4,16,0.37
2012-10-14,74.6,65.3,53.2,61.6,57.2,46.5,85,76,52,29.91,29.51,37,10,37,0.54
2012-10-15,57.4,50.2,39.5,46.9,42.0,34.7,85,74,53,29.97,29.74,22,6,22,0.00
2012-10-16,65.9,50.3,33.2,43.8,38.2,29.5,88,66,40,30.00,29.70,17,4,17,0.01
2012-10-17,72.5,61.2,52.8,53.3,48.3,43.3,83,64,41,29.71,29.41,27,7,27,0.43
2012-10-18,62.4,55.4,47.4,52.4,41.2,30.4,86,61,33,29.62,29.35,29,9,29,0.46
2012-10-19,50.2,47.1,45.1,43.9,41.5,38.8,85,81,73,29.65,29.51,18,6,18,0.27
2012-10-20,55.0,46.7,40.6,43.8,40.2,36.0,89,78,59,29.97,29.65,19,7,19,0.00
2012-10-21,67.2,51.1,35.0,48.7,41.7,31.2,89,72,48,30.12,29.96,15,3,15,0.01
2012-10-22,74.7,61.5,52.4,60.0,52.2,45.0,86,72,50,30.05,29.94,19,3,19,0.07
2012-10-23,65.7,63.1,59.8,59.4,55.9,52.7,88,78,67,30.02,29.92,21,4,21,0.54
2012-10-24,79.1,68.2,59.6,61.5,55.5,51.3,79,65,48,30.03,29.93,15,4,15,0.00
2012-10-25,77.9,67.6,59.3,58.0,54.0,51.0,74,63,46,29.96,29.82,22,5,22,0.00
2012-10-26,65.4,46.9,40.3,53.8,38.0,31.8,85,71,55,30.24,29.87,18,6,19,0.11
2012-10-27,52.4,42.9,35.0,33.5,30.3,26.6,78,63,38,30.24,30.14,18,5,18,0.00
2012-10-28,48.9,41.8,35.0,33.4,30.9,29.0,81,66,50,30.20,30.13,18,5,19,0.00
2012-10-29,48.7,41.5,35.0,29.9,25.4,20.4,70,54,33,30.16,29.86,23,8,24,0.00
2012-10-30,43.1,41.1,39.9,36.0,32.2,22.9,83,72,46,29.86,29.60,32,9,32,0.29
2012-10-31,41.4,39.5,36.8,35.8,33.8,31.8,86,80,71,29.82,29.67,23,7,23,0.18
2012-11-1,53.9,42.4,30.7,33.4,28.8,22.8,75,60,33,29.88,29.81,19,6,19,0.00
2012-11-2,49.2,40.9,33.5,32.6,30.4,28.1,84,67,48,30.12,29.85,18,3,18,0.00
2012-11-3,41.8,36.2,29.7,31.5,29.3,25.5,86,76,63,30.21,30.11,12,2,12,0.00
2012-11-4,43.0,35.3,27.6,29.4,26.9,23.5,86,72,53,30.24,30.17,14,2,14,0.01
2012-11-5,44.5,33.6,23.7,29.0,24.8,19.6,86,71,50,30.23,30.14,13,3,13,0.00
2012-11-6,49.4,38.3,26.0,32.9,27.8,21.3,84,67,46,30.14,29.92,12,3,12,0.01
2012-11-7,49.4,41.0,32.1,34.8,30.9,27.0,83,68,45,30.16,29.92,14,3,14,0.00
2012-11-8,47.4,36.2,25.4,37.8,29.2,21.2,87,76,60,30.26,30.15,12,3,12,0.00
2012-11-9,61.1,46.2,30.5,42.0,35.7,26.8,88,69,45,30.20,30.05,16,3,16,0.01
2012-11-10,70.8,58.3,48.0,50.2,43.6,38.2,70,59,45,30.11,30.00,18,5,18,0.00
2012-11-11,69.3,59.6,51.0,48.3,43.7,40.1,68,56,45,30.11,29.90,31,7,31,0.00
2012-11-12,62.0,40.0,31.1,50.7,32.6,22.9,86,75,53,30.36,29.92,20,9,23,0.78
2012-11-13,38.7,31.6,24.5,25.3,21.5,18.5,80,67,48,30.55,30.35,15,3,15,0.00
2012-11-14,41.7,31.5,23.0,28.8,23.4,18.5,84,72,54,30.59,30.43,14,2,14,0.00
2012-11-15,45.3,32.6,23.3,31.4,25.2,19.5,87,75,53,30.44,30.35,8,2,8,0.01
2012-11-16,52.0,34.8,22.6,34.2,24.1,18.5,87,68,33,30.52,30.40,10,2,10,0.00
2012-11-17,55.0,39.2,24.4,35.5,28.7,20.3,87,68,43,30.60,30.49,10,2,10,0.01
2012-11-18,58.4,44.4,32.5,36.0,30.9,26.6,80,61,36,30.50,30.37,11,2,11,0.00
2012-11-19,58.9,45.2,33.4,37.9,31.9,24.8,73,60,40,30.38,30.16,9,2,9,0.00
2012-11-20,53.7,48.5,43.9,41.3,39.0,35.0,81,70,56,30.17,30.06,9,2,9,0.01
2012-11-21,58.4,43.6,32.4,46.4,37.4,28.7,88,79,61,30.27,30.15,9,2,9,0.00
2012-11-22,63.0,49.2,35.0,45.9,39.1,31.0,89,70,45,30.19,29.89,22,5,22,0.04
2012-11-23,53.3,36.1,28.2,48.7,26.9,16.8,86,69,57,30.19,29.86,34,13,34,0.13
2012-11-24,30.2,28.3,26.0,20.4,18.9,17.5,73,68,63,30.26,30.09,17,7,17,0.00
2012-11-25,45.5,34.4,27.4,29.0,24.3,19.6,80,67,50,30.10,29.89,21,5,21,0.00
2012-11-26,43.2,34.5,25.1,30.1,25.7,20.4,86,71,52,30.33,30.04,13,3,13,0.00
2012-11-27,39.3,31.1,24.8,25.8,22.1,18.5,84,70,46,30.43,30.30,12,2,12,0.00
2012-11-28,42.2,31.3,24.0,24.9,21.7,17.7,83,68,49,30.42,30.30,15,4,15,0.00
2012-11-29,49.4,37.0,25.7,30.6,26.3,20.1,84,66,46,30.38,30.19,12,4,15,0.00
2012-11-30,56.0,43.4,33.4,35.4,31.1,25.9,76,63,44,30.19,30.09,16,3,16,0.00
2012-12-1,62.1,48.8,35.8,47.8,39.7,30.9,87,71,57,30.20,30.03,21,4,21,0.00
2012-12-2,61.3,57.0,53.3,55.1,50.8,44.3,88,80,63,30.08,29.95,15,5,15,0.17
2012-12-3,66.8,60.1,55.5,60.0,55.3,51.9,90,84,75,30.08,29.93,17,4,17,0.01
2012-12-4,59.6,50.3,41.0,54.0,44.8,34.7,86,81,76,30.20,29.94,21,4,21,0.11
2012-12-5,42.0,36.3,29.4,35.1,27.2,22.5,78,70,56,30.42,30.19,16,4,16,0.01
2012-12-6,45.3,36.0,27.3,36.5,29.0,21.6,80,75,70,30.30,29.97,13,3,13,0.00
2012-12-7,47.7,44.3,40.5,44.0,40.2,34.9,92,85,78,29.98,29.83,11,2,11,0.31
2012-12-8,45.5,43.0,38.0,42.5,39.5,33.0,89,87,82,30.09,29.81,16,4,16,0.01
2012-12-9,50.3,42.2,36.9,47.2,38.6,32.4,89,87,83,30.09,29.68,22,6,22,0.27
2012-12-10,44.9,33.8,30.7,41.9,29.5,25.3,89,84,80,29.95,29.71,22,8,22,0.01
2012-12-11,34.6,30.7,28.5,27.5,23.9,21.8,86,76,62,30.23,29.94,18,7,18,0.00
2012-12-12,43.1,31.5,22.2,29.2,23.5,17.8,92,73,53,30.40,30.23,9,3,9,0.00
2012-12-13,46.2,34.5,25.9,30.7,25.4,20.6,82,70,52,30.41,30.21,13,3,13,0.00
2012-12-14,50.1,38.2,29.2,33.7,28.1,22.6,77,67,50,30.28,30.13,11,2,11,0.00
2012-12-15,50.7,45.3,39.2,46.4,37.2,28.9,85,74,59,30.14,29.67,24,5,24,0.07
2012-12-16,54.0,49.2,40.8,49.2,43.9,36.3,86,82,75,29.74,29.61,20,7,20,0.00
2012-12-17,41.7,39.5,37.2,36.8,34.4,33.1,86,82,76,29.74,29.60,12,3,12,0.16
2012-12-18,41.8,37.7,35.5,36.0,32.8,30.4,92,82,75,29.84,29.66,19,5,19,0.02
2012-12-19,42.9,40.3,37.2,37.2,34.5,32.5,84,80,75,30.08,29.73,17,5,20,0.01
2012-12-20,53.3,41.8,32.2,47.4,37.0,28.4,89,83,69,29.93,29.14,38,10,38,1.15
2012-12-21,32.7,29.4,26.2,29.3,24.4,20.2,88,81,77,30.11,29.30,39,13,39,0.02
2012-12-22,29.3,24.7,21.5,22.0,19.0,16.6,82,79,73,30.26,30.05,18,6,18,0.00
2012-12-23,36.8,27.2,17.4,28.0,21.3,13.1,86,78,69,30.05,29.93,9,2,9,0.04
2012-12-24,32.5,30.2,27.4,28.8,25.4,22.2,86,82,79,30.04,29.81,13,3,13,0.01
2012-12-25,33.4,30.8,28.2,26.0,24.1,22.5,81,76,70,30.27,30.04,21,4,21,0.00
2012-12-26,31.1,29.1,26.7,26.1,24.0,22.1,92,81,71,30.16,29.77,29,10,29,0.00
2012-12-27,33.6,27.4,21.5,26.9,22.3,17.1,84,81,74,30.20,30.00,16,3,16,0.01
2012-12-28,31.7,28.4,22.3,26.5,23.3,18.2,86,81,74,30.19,29.89,11,3,11,0.00
2012-12-29,31.4,27.6,23.5,27.7,23.5,18.2,86,84,79,30.22,29.83,21,6,21,0.05
2012-12-30,27.2,21.7,14.8,18.2,15.3,9.2,81,76,68,30.44,30.22,19,6,19,0.05
2012-12-31,33.9,30.2,22.1,29.5,24.3,15.7,92,79,68,30.28,30.06,21,8,21,0.00
2013-1-1,31.5,28.1,26.3,26.2,21.7,19.7,84,77,67,30.19,30.06,9,2,9,0.03